星链-5449 (STARLINK-5449 )

导读

STARLINK-5449是美国太空探索技术公司(SpaceX)星链(Starlink)互联网卫星星座的一员,于2022年12月17日由猎鹰9号火箭发射,属于星链Group 4-16批次,质量约297千克,运行在近地轨道,当前飞行高度约548千米,飞行速度约7.59千米每秒,旨在为全球尤其是偏远地区提供高速宽带互联网服务。

Basic Information
目录编号:
54780
目录名称:
STARLINK-5449
国际标识:
2022-175Y
轨道中心:
EARTH
卫星名称:
星链-5449
卫星全名:
星链-5449 (STARLINK-5449 )
卫星状态:
在轨 (已飞行1367 天)
发射日期:
2022-12-17 UTC
国别 :
美国 (US)
星等 :
--
This satellite is enrolled in the Space Conjunction Data Service (SCDS) and the current flight risk assessment level is: High Risk
Orbit Information
数据来源 国际轨道数据 AOE轨道数据
星历时间 2026-09-13T14:56:29+0800
1天前
查看轨道信息
2026-09-10T06:00:00+0800
4天前
查看轨道信息
半长轴 6840.862km 6840.826km
偏心率 0.0001232 0.0001293
轨道倾角 53.159° 53.159°
近地点辐角 84.840° 75.234°
升交点赤经 253.498° 269.265°
平近点角 275.274° 5.116°
近地点 461.882km 461.804km
远地点 463.568km 463.574km
周期 93.848分钟 93.847分钟
每日圈数 15.343927 15.344049
Detailed Information
固有亮度:
5
最大亮度:
2.5
卫星平台:
Starlink v1.5
覆盖范围:
全球
运营商:
太空探索技术公司
运营商所在国:
美国
制造商(研发单位):
太空探索技术公司
制造商所在国:
美国
使用方式:
暂无
Satellite Introduction
星链(Starlink)计划是由太空探索技术公司(SpaceX)提出的一个巨型低轨卫星互联网星座项目,计划在2019年至2024年间在太空搭建由约1.2万颗卫星组成的“星链”网络,其中1584颗将部署在地球上空550千米处的近地轨道,并从2020年开始工作。该卫星仍在工作。
2D Orbit Map
3D Orbit Map
Orbit Altitude Analysis Chart
Orbit Inclination Analysis Chart
Orbit Comprehensive Analysis Chart
View Comprehensive Chart
Conjunction Data List
Event ID Objects TCA Miss Dist (km) Collision Risk Probability Collision Risk Index (CRI) Action
CDM_260916-151005-478006-467921
2026-09-16T
15:10:13+0000
0.320 km
远距离
3.443315E-4 高风险 0.86
CDM_260916-015205-478006-467921
2026-09-16T
01:52:59+0000
0.441 km
远距离
1.861856E-4 高风险 0.8
CDM_260917-050105-478006-461621
2026-09-17T
05:01:28+0000
1.042 km
极远距离
1.417536E-5 中风险 0.58
CDM_260916-001905-478006-467921
2026-09-16T
00:19:12+0000
1.914 km
极远距离
2.122769E-6 低风险 0.42
CDM_260917-032705-478006-461621
2026-09-17T
03:27:40+0000
1.999 km
极远距离
1.828878E-6 低风险 0.4
CDM_260916-133605-478006-467921
2026-09-16T
13:36:26+0000
2.412 km
极远距离
1.275292E-6 低风险 0.37
CDM_260916-032605-478006-467921
2026-09-16T
03:26:47+0000
2.526 km
极远距离
1.175457E-6 低风险 0.36
CDM_260915-065405-478006-415521
2026-09-15T
06:54:23+0000
2.775 km
极远距离
1.113306E-6 低风险 0.36
Miss Distance Evolution Trend with All Objects Subscribe to Flight Safety Assessment
Collision Probability Evolution Trend with All Objects Subscribe to Flight Safety Assessment